Location: Grieser Field
(39.7333°N, 81.7975°W)
Time: 00:50:38
(UTC-04:00)

Daily predictions for brighter satellites

Satellite Brightness Start Highest point End
(mag) Time Altitude Azimuth Time Altitude Azimuth Time Altitude Azimuth
Sich 1 Rocket 4.1 00:05:59 56° WNW 00:05:59 56° WNW 00:10:04 10° N
Cosmos 1782 Rocket 4.1 00:09:07 55° N 00:09:07 55° N 00:12:35 10° N
Cosmos 494 Rocket 4.1 00:03:41 10° NNW 00:08:45 62° W 00:08:45 62° W
Meteor 1-18 Rocket 4.1 00:03:13 10° N 00:08:56 76° E 00:09:08 75° ESE
Lacrosse 5 rocket 4.3 00:11:08 10° WNW 00:13:04 14° NNW 00:15:02 10° N
Spot 4 4.1 00:14:20 63° WNW 00:14:20 63° WNW 00:18:46 10° NNW
Cosmos 1943 Rocket 4.5 00:10:29 10° WSW 00:14:36 21° NW 00:18:44 10° N
CZ-4 R/B 4.2 00:10:42 10° N 00:15:12 55° WNW 00:15:12 55° WNW
Cosmos 405 Rocket 4.4 00:15:50 10° N 00:17:52 31° NNW 00:17:52 31° NNW
Cosmos 2026 Rocket 4.2 00:25:32 53° WSW 00:26:35 61° W 00:32:45 10° N
CZ-4B R/B 3.8 00:22:10 10° N 00:26:59 57° WNW 00:26:59 57° WNW
ALOS 2 4.0 00:28:20 33° NE 00:28:20 33° NE 00:31:20 10° N
Cosmos 1975 Rocket 4.0 00:27:16 10° NNW 00:30:38 46° NW 00:30:38 46° NW
S3M 3.8 00:40:08 10° N 00:46:16 79° W 00:46:18 79° W
Cosmos 1697 Rocket 4.2 00:49:13 24° ENE 00:49:13 24° ENE 00:52:10 10° NE
Cosmos 2297 Rocket 2.8 00:42:47 10° NNW 00:48:16 48° ENE 00:48:16 48° ENE
ATLAS 5 CENTAUR R/B 4.3 00:55:59 10° WNW 00:59:24 17° WSW 00:59:24 17° WSW
ATLAS CENTAUR R/B 3.4 01:05:54 24° NNW 01:05:54 24° NNW 01:08:21 10° N
Cosmos 1553 Rocket 4.4 00:59:39 10° NNW 01:05:47 51° W 01:05:58 51° W
Cosmos 2082 3.9 01:05:26 10° NNW 01:10:39 70° NNE 01:10:39 70° NNE
Cosmos 2278 3.9 01:12:16 69° NNE 01:12:16 69° NNE 01:17:14 10° NNE
ISS -0.2 01:12:57 10° NNW 01:13:41 11° N 01:14:25 10° N
Meteor 1-13 Rocket 4.4 01:09:08 10° NNW 01:14:20 67° NW 01:14:20 67° NW
Meteor 1-19 Rocket 4.4 01:09:38 10° NNW 01:14:56 68° WNW 01:14:56 68° WNW
CZ-2C R/B 4.2 01:25:43 35° WNW 01:25:43 35° WNW 01:29:16 10° NNW
Mayak 0.4 01:24:25 10° N 01:26:48 33° N 01:26:48 33° N
Cosmos 1624 Rocket 4.5 01:32:22 60° N 01:32:22 60° N 01:36:49 10° NNE
Meteor 1-11 Rocket 4.3 01:36:32 53° WNW 01:36:32 53° WNW 01:42:15 10° N
Cosmos 2227 Rocket 2.9 01:31:50 10° NNW 01:36:06 45° WNW 01:36:06 45° WNW
Cosmos 2266 Rocket 4.5 01:37:32 49° W 01:37:40 49° WNW 01:43:37 10° N
USA 229 DEB 3.5 01:38:24 84° ESE 01:38:24 84° ESE 01:45:21 10° NE
USA 229 3.5 01:38:31 83° ESE 01:38:31 83° ESE 01:45:26 10° NE
Cosmos 407 Rocket 4.0 01:34:29 10° NNW 01:38:55 60° N 01:38:55 60° N
CZ-2C R/B 3.9 01:37:32 10° N 01:41:59 30° WNW 01:42:04 30° WNW
Cosmos 2315 Rocket 4.0 01:36:25 10° N 01:42:16 72° WNW 01:42:16 72° WNW
Meteor 1-23 Rocket 4.4 01:38:59 10° NNW 01:43:52 65° NNW 01:43:52 65° NNW
Cosmos 1656 4.2 01:53:47 51° NW 01:53:47 51° NW 01:58:49 10° NNE
CZ-4B R/B 4.1 02:04:25 19° NNW 02:04:25 19° NNW 02:05:32 10° NNW
Cosmos 2056 Rocket 4.4 02:02:35 40° NW 02:02:35 40° NW 02:06:51 10° N
Cosmos 1980 Rocket 2.4 02:03:42 63° NE 02:03:42 63° NE 02:08:32 10° NNE
CZ-4C R/B 3.3 01:56:04 10° NNW 02:03:08 58° NE 02:06:48 32° ESE
BREEZE-M DEB (TANK) 4.5 01:41:06 10° NW 02:05:45 67° SW 02:07:14 58° S
Cosmos 1954 Rocket 4.4 02:02:48 10° NNW 02:07:16 62° N 02:07:16 62° N
Cosmos 1238 Rocket 3.8 02:04:40 10° N 02:09:20 73° N 02:09:20 73° N
Cosmos 1975 4.4 02:23:32 34° N 02:23:32 34° N 02:25:54 10° N
Cosmos 1452 Rocket 3.9 02:28:49 58° NW 02:28:49 58° NW 02:33:30 10° NNE
NOSS 3-1 (C) 3.2 02:29:04 84° ENE 02:29:04 84° ENE 02:35:20 10° NE
H-2A R/B 3.9 02:26:10 10° N 02:28:35 35° N 02:28:35 35° N
Cosmos 1697 Rocket 3.6 02:30:56 38° WNW 02:31:12 38° WNW 02:36:27 10° N
Cosmos 2297 Rocket 4.0 02:27:36 10° NW 02:30:03 19° WNW 02:30:03 19° WNW
USA 81 4.4 02:26:59 10° N 02:32:01 60° ENE 02:32:01 60° ENE
Cosmos 1850 Rocket 4.2 02:35:24 10° NNW 02:40:44 69° ENE 02:40:44 69° ENE
Nadezhda 1 Rocket 3.8 02:35:16 10° N 02:41:23 77° W 02:41:30 77° WSW
Cosmos 1709 Rocket 4.1 02:42:48 58° ESE 02:43:26 62° E 02:49:28 10° NNE
SL-16 R/B 2.5 02:44:16 55° ESE 02:44:16 55° ESE 02:49:44 10° NNE
Helios 1A Rocket 4.1 02:44:20 10° NNE 02:47:07 40° NE 02:47:07 40° NE
BREEZE M DEB (TANK) 3.7 02:48:29 63° WNW 02:49:04 69° NW 02:52:19 10° NE
ISS -0.6 02:49:21 10° NNW 02:51:17 15° NNE 02:53:12 10° NE
Cosmos 2322 Rocket 2.2 02:53:12 67° ESE 02:53:18 67° ESE 02:58:59 10° NNE
SL-16 R/B 3.7 02:55:29 17° SE 02:59:41 38° ENE 03:05:24 10° N
Cosmos 1626 Rocket 4.1 02:58:12 10° N 03:01:42 56° N 03:01:42 56° N
Cosmos 1666 4.0 03:07:17 38° N 03:07:17 38° N 03:09:47 10° N
USA 234 3.3 03:00:01 10° NE 03:06:33 76° NW 03:08:24 50° WSW
Resurs 1-4 Rocket 3.0 03:14:09 10° NNE 03:19:06 40° E 03:20:23 35° SE
IRS-1C 4.3 03:14:05 10° NNE 03:19:23 62° ESE 03:20:14 54° SE
Cosmos 2181 Rocket 4.0 03:13:56 10° N 03:20:22 89° W 03:22:06 53° S
Cosmos 1461 4.1 03:16:35 10° NW 03:19:15 36° NW 03:19:15 36° NW
Cosmos 1825 Rocket 4.5 03:18:27 10° N 03:22:40 43° ENE 03:23:30 38° ESE
Cosmos 1741 Rocket 4.5 03:18:09 10° NNW 03:22:27 46° WNW 03:22:27 46° WNW
ARIANE 5 R/B 3.5 03:20:23 10° NNE 03:25:11 39° E 03:26:38 32° SE
BREEZE-M DEB (TANK) 4.4 03:20:13 10° W 03:26:46 29° NNW 03:29:35 10° NE
ATLAS 2AS CENTAUR R/B 3.8 03:26:52 28° SSE 03:30:03 41° ESE 03:37:26 10° NE
ADEOS Rocket 2.8 03:23:57 10° NNE 03:30:15 84° WNW 03:31:34 57° SSW
BREEZE M DEB (TANK) 4.2 03:32:30 26° NE 03:32:30 26° NE 03:35:00 10° E
SL-08 ROCKET BODY 4.4 03:31:22 52° S 03:33:01 87° E 03:39:07 10° N
NOSS 3-1 (A) 4.0 03:33:28 37° W 03:35:14 47° NW 03:41:30 10° NNE
NPP 3.6 03:30:06 10° N 03:35:27 68° WNW 03:36:18 58° WSW
Cosmos 1842 4.1 03:32:41 10° NNW 03:35:25 41° NW 03:35:25 41° NW
Cosmos 1331 Rocket 3.8 03:36:02 69° SSW 03:36:41 85° WNW 03:41:52 10° NNE
SL-08 R/B 3.2 03:37:31 67° W 03:37:31 67° W 03:42:01 10° NNW
CZ-2D R/B 2.4 03:33:38 10° NNE 03:39:06 63° ESE 03:40:47 42° SSE
COBE Rocket 4.0 03:34:46 10° N 03:39:53 63° WNW 03:40:35 57° WSW
Cosmos 2263 Rocket 2.1 03:34:41 10° NNW 03:40:25 85° WSW 03:42:29 41° SSE
Cosmos 220 Rocket 3.8 03:38:04 10° NNW 03:42:06 79° NW 03:42:06 79° NW
NOSS 2-3 (E) 4.1 03:41:49 48° SSE 03:42:31 53° ESE 03:47:39 10° NE
IRS-P3 4.4 03:39:15 10° N 03:44:26 52° WNW 03:45:21 47° WSW
Cosmos 2360 Rocket 2.2 03:44:09 48° S 03:45:42 72° ESE 03:51:20 10° NNE
Cosmos 1980 Rocket 4.1 03:45:28 14° WNW 03:47:31 17° NW 03:51:09 10° N
COSMOS 2428 4.0 03:45:35 22° SSE 03:48:20 33° ESE 03:53:23 10° NE
CBERS-1 4.2 03:43:41 10° N 03:48:41 54° WNW 03:49:32 48° WSW
Cosmos 44 3.6 03:45:08 10° NNW 03:49:27 58° NE 03:53:54 10° SE
DELTA 2 R/B (1) 3.7 03:49:16 50° S 03:49:57 53° SSE 03:55:21 10° E
Cosmos 2219 Rocket 4.3 03:46:41 10° SE 03:50:32 20° E 03:54:28 10° NE
CZ-4C R/B 3.6 03:45:05 10° NW 03:51:34 34° WSW 03:51:52 34° WSW
Cosmos 2074 Rocket 3.9 03:49:38 41° S 03:52:04 89° W 03:58:24 10° N
OAO 3 Rocket 3.8 03:54:41 40° SSE 03:54:41 40° SSE 03:58:50 10° E
Cosmos 1486 Rocket 4.3 03:51:46 10° NNW 03:57:04 67° ENE 04:01:31 14° SSE
Cosmos 2058 Rocket 3.5 03:56:09 38° SSE 03:57:36 58° E 04:02:02 10° NNE
AQUA 4.2 03:53:26 10° N 03:57:59 46° WNW 03:58:41 43° W
Cosmos 1953 Rocket 3.6 03:55:49 10° N 04:00:19 82° E 04:01:44 43° SSE
Cosmos 1844 Rocket 4.5 03:55:50 10° N 04:00:53 32° ENE 04:05:55 10° ESE
Uosat 12 SS-18 rocket 4.3 04:02:03 51° SW 04:03:15 79° WNW 04:08:51 10° NNE
Centaur D AC-29 3.2 04:03:54 20° SSE 04:03:55 20° SSE 04:09:43 10° ESE
ATLAS 3B R/B 4.2 03:57:53 10° NNW 04:04:01 35° NE 04:09:55 10° ESE
CBERS 1 LM4 rocket 4.3 03:59:26 10° NNE 04:04:12 82° WNW 04:05:37 47° SSW
MOZ.5/SAFIR/RUBIN 5/SL-8 4.4 04:01:10 16° SSE 04:04:46 54° ENE 04:09:17 10° N
Centaur D AC-25 4.4 03:53:56 10° W 04:07:55 18° SSE 04:09:17 10° SSE
MOS 1 Rocket 3.2 04:02:01 10° NNE 04:06:33 71° ESE 04:07:59 41° S
Cosmos 2333 Rocket 4.2 04:03:18 10° SSE 04:07:34 22° E 04:11:49 10° NE
Meteor 2-5 Rocket 4.2 04:03:24 10° N 04:09:00 61° ENE 04:14:41 10° SSE
Cosmos 2322 3.6 04:06:52 40° SSW 04:09:02 89° WNW 04:14:44 10° NNE
BREEZE M DEB (TANK) 4.4 04:07:59 10° NW 04:09:33 15° N 04:11:45 10° NE
Cosmos 2154 Rocket 4.2 04:07:32 22° S 04:11:43 68° E 04:17:58 10° NNE
Okean O Rocket 4.4 04:12:28 10° ENE 04:14:25 13° E 04:16:23 10° ESE
NOSS 2-3 (C) 3.8 04:14:04 43° SW 04:15:40 80° NW 04:21:05 10° NNE
Cosmos 1610 Rocket 4.4 04:12:36 30° S 04:15:52 86° W 04:22:02 10° N
SL-8 R/B 3.6 04:14:20 43° WSW 04:15:56 87° NW 04:20:47 10° ENE
Iridium 4 Rocket 3.8 04:18:26 31° SSW 04:21:20 69° W 04:27:01 10° N
Cosmos 1726 Rocket 3.8 04:21:10 42° WSW 04:22:11 51° W 04:26:30 10° N
UNK 4.2 04:22:03 38° SW 04:22:50 41° W 04:27:14 10° NNW
Cosmos 1707 2.6 04:19:45 10° N 04:23:38 82° W 04:25:01 38° S
Cosmos 1766 4.4 04:22:41 17° SSE 04:25:16 39° E 04:28:57 10° NNE
ADEOS 3.7 04:22:46 10° N 04:27:55 60° WNW 04:30:19 31° SW
ISS -3.3 04:25:04 10° NW 04:28:18 59° NE 04:31:31 10° ESE
SL-16 R/B 3.8 04:26:08 17° W 04:28:39 22° NW 04:33:02 10° N
Meteor 1-4 Rocket 3.7 04:30:12 26° WNW 04:30:14 26° WNW 04:33:16 10° NNW
Cosmos 2341 Rocket 4.3 04:25:24 14° S 04:30:53 70° E 04:37:13 10° NNE
Cosmos 44 Rocket 3.4 04:26:19 10° NW 04:30:53 49° WSW 04:34:03 19° S
Cosmos 1607 4.2 04:25:13 10° NNW 04:31:41 77° ENE 04:38:09 10° SE
Cosmos 1302 Rocket 4.5 04:30:38 30° WSW 04:32:50 47° WNW 04:37:58 10° N
Cosmos 1378 3.0 04:30:13 10° N 04:33:57 77° W 04:35:40 30° S
USA 161 3.3 04:32:50 10° SE 04:35:37 34° ENE 04:38:20 10° N
IRS-1D 4.2 04:31:30 10° N 04:36:03 38° WNW 04:38:04 26° WSW
H-2A R/B 3.8 04:11:42 10° W 04:37:20 45° SSW 04:42:27 10° SE
Cosmos 2322 Rocket 4.0 04:35:01 14° W 04:37:53 19° NW 04:41:54 10° N
Cosmos 2333 4.3 04:34:25 23° SSW 04:38:06 79° ESE 04:43:48 10° NNE
CZ-2D R/B 3.5 04:37:58 10° N 04:42:17 71° WNW 04:44:34 26° SSW
SL-16 R/B 3.2 04:40:35 24° SW 04:43:17 34° W 04:48:54 10° NNW
Meteor 2-8 Rocket 4.5 04:40:59 10° NNW 04:46:59 61° W 04:52:37 12° S
Cosmos 1844 4.3 04:43:16 10° NNW 04:48:48 58° ENE 04:54:21 10° SE
Cosmos 1503 Rocket 4.0 04:43:53 10° NNW 04:49:13 82° WSW 04:54:33 10° SSE
Cosmos 1340 Rocket 2.7 04:53:15 10° NNW 04:57:13 70° W 05:01:07 10° S
ADEOS II 2.6 04:53:25 10° NNE 04:58:36 58° E 05:03:46 10° S
Resurs 1-4 Rocket 3.4 04:54:29 10° NNW 04:58:42 25° WNW 05:01:28 16° WSW
Cosmos 1356 Rocket 4.5 04:54:51 10° N 04:58:45 45° ENE 05:02:34 10° SSE
Cosmos 1805 3.8 04:57:04 10° S 05:00:54 59° E 05:04:45 10° NNE
Meteor 1-22 Rocket 4.3 04:57:20 14° SSW 05:02:18 75° W 05:08:14 10° N
ARIANE 5 R/B 3.8 04:59:58 10° NNW 05:04:04 25° WNW 05:06:58 15° WSW
BREEZE-M DEB (TANK) 2.4 05:05:01 20° WSW 05:06:57 71° NNW 05:12:23 10° ENE
Cosmos 1932 4.5 05:00:42 10° NW 05:07:09 66° WSW 05:13:26 10° SSE
Cosmos 1992 Rocket 4.1 05:07:17 16° SSW 05:11:28 64° WNW 05:16:40 10° NNE
Cosmos 1271 Rocket 3.9 05:11:22 18° WSW 05:13:35 29° WNW 05:17:07 10° NNW
Lacrosse 5 rocket 3.2 05:11:32 10° NNW 05:15:13 34° NE 05:19:06 10° ESE
UNKNOWN OBJECT B 4.2 05:12:20 10° NNW 05:15:23 23° WNW 05:17:32 15° WSW
Cosmos 1184 Rocket 4.2 05:13:47 10° NW 05:16:23 21° W 05:17:41 17° SW
CZ-2D R/B 3.9 05:15:01 10° NNW 05:18:36 18° WNW 05:22:06 10° WSW
Cosmos 1758 3.5 05:15:59 10° S 05:19:58 75° E 05:24:01 10° N
ATLAS 2AS CENTAUR R/B 3.5 05:14:19 14° WSW 05:20:58 50° NW 05:28:52 10° NNE
Cosmos 389 Rocket 3.4 05:21:18 15° SW 05:23:42 31° WNW 05:26:56 10° N
Cosmos 1809 Rocket 4.5 05:19:32 10° SSW 05:25:38 77° W 05:31:50 10° N
Cosmos 1953 2.4 05:23:33 10° S 05:27:35 79° E 05:31:37 10° N
CZ-4B R/B 2.8 05:23:53 10° NNE 05:27:44 87° WNW 05:31:47 10° SSW
Abrixas rocket 3.7 05:25:02 10° SSW 05:27:55 28° SE 05:30:49 10° ENE
NOSS 3-4 (A) 4.4 05:22:37 10° S 05:28:35 47° ESE 05:34:42 10° NE
NOSS 3-4 (C) 4.4 05:22:43 10° S 05:28:40 46° ESE 05:34:46 10° NE
Lacrosse 5 3.6 05:25:55 10° S 05:30:07 27° ESE 05:34:20 10° ENE
Cosmos 2360 Rocket 4.0 05:26:32 10° W 05:30:17 18° NW 05:34:02 10° N
In-Cosmos 22 4.2 05:25:19 10° NNW 05:30:32 54° W 05:35:39 10° S
COSMOS 2428 3.6 05:27:37 12° WSW 05:32:30 35° WNW 05:37:45 10° N
Cosmos 2219 Rocket 2.5 05:28:26 10° SW 05:33:58 56° WNW 05:39:35 10° NNE
Meteor 2-21 4.5 05:28:40 10° SSW 05:34:41 68° W 05:40:49 10° N
Cosmos 1980 3.8 05:29:18 10° SSW 05:34:59 90° E 05:40:42 10° NNE
PAYLOAD B 4.4 05:30:27 10° NNE 05:36:05 86° ESE 05:41:42 10° SSW
DELTA 2 R/B (1) 3.6 05:30:40 10° W 05:36:16 88° S 05:41:51 10° E
Cosmos 2237 Rocket 2.3 05:31:14 10° SSW 05:36:52 86° ESE 05:42:31 10° NNE
Aureole 2 Rocket 3.7 05:33:21 11° SW 05:37:05 35° WNW 05:40:51 10° N
OAO 3 Rocket 3.6 05:32:47 10° WSW 05:37:27 48° S 05:42:11 10° ESE
Meteor 2-14 Rocket 4.4 05:33:04 10° S 05:39:06 82° W 05:45:14 10° N
SL-8 Rocket 4.2 05:33:52 10° SSW 05:40:02 55° W 05:46:14 10° N
SEDSat Delta rocket 4.2 05:36:50 10° SW 05:40:14 25° S 05:43:51 10° ESE
PSLV R/B 4.2 05:38:02 10° N 05:41:48 47° WNW 05:45:38 10° SSW
Cosmos-2242 4.3 05:38:40 10° SSE 05:42:40 42° E 05:46:44 10° NNE
ATLAS CENTAUR R/B 3.1 05:38:18 10° NW 05:42:56 37° NNE 05:45:13 10° ESE
CZ-4B R/B 3.4 05:37:39 10° NNE 05:43:21 88° ESE 05:48:58 10° SSW
Cosmos 1844 Rocket 3.3 05:39:38 10° NW 05:44:46 36° WSW 05:49:52 10° S
Cosmos 1470 2.9 05:43:43 10° S 05:47:39 78° E 05:51:35 10° N
Okean O Rocket 1.8 05:46:44 10° N 05:51:07 57° WNW 05:55:28 10° SSW
Cosmos 2333 Rocket 2.6 05:45:53 10° SW 05:51:25 50° WNW 05:56:57 10° NNE
SeaSat 1 2.6 05:47:01 10° S 05:51:48 50° WSW 05:56:35 10° NW
Timation 1 Rocket 4.4 05:46:22 10° NNW 05:52:22 85° WSW 05:58:21 10° SSE
